Zurück zum Katalog

COSMOS 2251 DEB

AktivLEO
NORAD 34816·DEBRIS·🇷🇺 Russia

Gestartet Jun 16, 1993 von Plesetsk Cosmodrome

Loading…

Nächste Überflüge (nächste 24 Stunden)

TLE

AktuellSource: Space-Track

Epoche: Sep 14, 2026, 09:45 UTC

1 34816U 93036ABF 26257.40649937  .00000391  00000-0  35530-3 0  9999
2 34816  73.8858  53.1200 0373407  67.8974 324.2965 13.58798873865277

Verfolge COSMOS 2251 DEB in Echtzeit mit AllMySat

Download on the App Store